Flag for Netherlands Weather past 2 weeks in Tilburg, Netherlands

Now
37 °F

Fog.


Feels Like: 34 °F
Forecast: 37 / 46 °F
Wind: 5 mph from Southwest

Location: Gilze-Rijen

Current Time: Jan 25, 2015 at 11:37:28 AM

Latest Report: Jan 25, 2015 at 10:55 AM


Visibility: 4 mi

Pressure: 30.42 "Hg

Humidity: 100%

Dew point: 37 °F

Location of TilburgLocation

Historic Weather in Tilburg — Graph

°F

Tilburg temperature yesterday

Maximum temperature yesterday: 43 °F (at 1:55 PM)
Minimum temperature yesterday: 28 °F (at 12:25 AM)
Average temperature yesterday: 35 °F

Past Weeks' High & Low Weather Summary

 TemperatureHumidityPressure
High55 °F (Jan 10, 10:25 AM)100% (Jan 12, 5:55 AM)30.42 "Hg (Jan 12, 5:55 AM)
Low23 °F (Jan 23, 4:25 AM)61% (Jan 10, 9:25 PM)29.33 "Hg (Jan 15, 1:55 PM)
Average38 °F87%29.91 "Hg
* Reported Jan 10 10:25 AM — Jan 25 10:25 AM, Tilburg, Weather by CustomWeather, © 2014

Note: Actual official high and low records may vary slightly from our data, if they occured in-between our weather recording intervals... More about our weather records

Advertising

Tilburg weather history for previous 24 hours

 ConditionsComfort  
Time TempWeatherWind HumidityBarometerVisibility
10:25 AM
Jan 25
37 °FFog.6 mph93%30.42 "Hg4 mi
9:55 AM36 °FFog.5 mph100%30.42 "Hg4 mi
9:25 AM36 °FFog.5 mph100%30.42 "Hg3 mi
9:00 AM36 °FFog.2 mph100%30.42 "Hg3 mi
8:55 AM36 °FFog.3 mph100%30.42 "Hg2 mi
8:25 AM36 °FFog.3 mph100%30.42 "Hg3 mi
7:55 AM36 °FFog.5 mph100%30.39 "Hg4 mi
7:25 AM36 °FFog.5 mph100%30.39 "Hg3 mi
6:59 AM36 °FFog.5 mph93%30.39 "Hg3 mi
6:25 AM34 °FFog.5 mph100%30.39 "Hg3 mi
5:55 AM36 °FFog.5 mph93%30.39 "Hg2 mi
5:25 AM34 °FFog.5 mph100%30.39 "Hg2 mi
4:55 AM34 °FFog.5 mph100%30.36 "Hg2 mi
4:25 AM34 °FFog.5 mph100%30.36 "Hg1 mi
3:55 AM34 °FFog.5 mph100%30.36 "Hg4 mi
3:25 AM34 °FFog.5 mph100%30.36 "Hg4 mi
2:55 AM36 °FFog.6 mph93%30.36 "Hg4 mi
2:25 AM34 °FLight rain. Passing clouds.6 mph93%30.36 "Hg4 mi
2:03 AM34 °FFog.5 mph93%30.36 "Hg3 mi
1:59 AM34 °FFog.6 mph93%30.36 "Hg2 mi
1:25 AM32 °FIce fog.5 mph93%30.36 "Hg2 mi
12:55 AM34 °FFog.6 mph93%30.36 "Hg2 mi
12:25 AM34 °FFog.5 mph93%30.36 "Hg4 mi
11:55 PM
Jan 24
34 °FFog.6 mph93%30.36 "Hg5 mi
10:55 PM34 °FFog.5 mph93%30.33 "Hg4 mi
10:25 PM34 °FFog.5 mph100%30.33 "Hg5 mi
9:55 PM36 °FFog.5 mph93%30.33 "Hg6 mi
9:25 PM36 °FPassing clouds.6 mph93%30.33 "HgN/A
8:55 PM36 °FPartly cloudy.7 mph93%30.30 "HgN/A
8:25 PM36 °FPassing clouds.5 mph93%30.30 "HgN/A
7:55 PM37 °FPassing clouds.5 mph87%30.30 "HgN/A
7:25 PM36 °FPassing clouds.7 mph93%30.30 "HgN/A
6:55 PM36 °FMostly cloudy.8 mph93%30.27 "HgN/A
6:25 PM36 °FPassing clouds.7 mph93%30.27 "HgN/A
5:55 PM36 °FPassing clouds.7 mph87%30.24 "HgN/A
5:25 PM37 °FPassing clouds.6 mph87%30.21 "HgN/A
4:55 PM41 °FPartly sunny.8 mph76%30.21 "HgN/A
4:25 PM41 °FPartly sunny.12 mph76%30.18 "HgN/A
3:55 PM39 °FScattered clouds.7 mph81%30.18 "HgN/A
3:25 PM43 °FPassing clouds.13 mph71%30.15 "HgN/A
2:55 PM43 °FBroken clouds.12 mph71%30.15 "HgN/A
2:25 PM43 °FPartly sunny.13 mph71%30.12 "HgN/A
2:01 PM43 °FBroken clouds.13 mph71%30.12 "HgN/A
1:55 PM43 °FPartly sunny.13 mph71%30.12 "HgN/A
1:25 PM41 °FBroken clouds.9 mph81%30.12 "HgN/A
12:55 PM39 °FScattered clouds.6 mph93%30.09 "HgN/A
12:25 PM37 °FFog.3 mph93%30.09 "Hg2 mi
12:03 PM37 °FFog.3 mph93%30.09 "Hg2 mi
11:56 AM36 °FFog.3 mph93%30.09 "Hg2 mi
11:25 AM34 °FFog.5 mph100%30.09 "Hg2 mi
Weather by CustomWeather, © 2014

See weather overviewHow to use our weather pages